STARLINK-33586, 63073

Orbit data source: Space-Track

STARLINK-33586, 63073 is a payload satellite owned by SpaceX/Seattle (US) in LEO that was launched on Fri, 21 Feb 2025 UTC via an FALCON 9 launch vehicle from the Air Force Eastern Test Range (AFETR). Payload-class satellites include a variety of spacecraft equipped with specific instruments for various scientific and technological missions. These include communications satellites like Starlink; space stations such as the ISS; scientific satellites like the Hubble; Earth observation satellites from companies like Planet Labs, Umbra, and HawkEye 360; GPS; miniature CubeSats for education and research; and military/defense satellites.

Loading next visibility...
Identifier
63073, 2025-035X
Orbit
LEO
Country
Flag of USUS
Related business
Manufacturer
SpaceX/Seattle
Mission
Operational Commercial Communications
Bus & Motor
STARLINK V2MO, Unknown motor
Mass
575 kg wet, ~530 kg dry
Launch date (UTC)
2025-02-21 (1 year ago)
Launch vehicle
FALCON 9
Launch site
Air Force Eastern Test Range (AFETR)
Object type
Payload
Rocket body
Debris
Shape & HBR
Box + 2 Pan, 17.7 m
Radar Cross Section
36.964 m², Large (>1 m²)

Expand to show TLE details & history
Last TLE update: 13 hours ago

TLE from 13 hours ago
0 STARLINK-33586
1 63073U 25035X   26171.29506573  .00017253  00000-0  63479-3 0  9998
2 63073  43.0046 280.5383 0002377 286.6025  73.4566 15.27590308 75503
Epoch: 2026-06-20T07:04Z
TLE epoch observation values (Epoch: 2026-06-20T07:04:53.679Z)
Latitude
0.00003°
Longitude
-94.19708°
Altitude
482.33 km
Speed
7.626 km/s
True Right ascension
18h 42m 09s
True Declination
0° 00' 00"
Sunlit
Object was in full shadow at epoch
Visualization orbit readout
Latitude
Unknown
Longitude
Unknown
Altitude
Unknown
Speed
Unknown
Apparent Right ascension
Unknown
Apparent Declination
Unknown
Sunlit
N/A
Visualization observer readout
Local Sidereal Time
07:16:29
Azimuth
Unknown
Elevation
Unknown
Doppler factor
Unknown
Orbital elements
Apogee altitude
486.594 km
Perigee altitude
483.331 km
Semi-major axis
6,863.1 km
Eccentricity
0.00024
Inclination
43.0046°
RAAN
280.5383°
Arg. of periapsis
286.6025°
True anomaly
73.48271°
Mean anomaly
73.4566°
Eccentric anomaly
73.46966°
Mean motion
3.81736 °/min
Orbital period
94.31 mins
BSTAR
0.00063479
Loading maneuver chart data...
Computing Atmospheric mass density...
Loading historical data...
Loading historical data...
Loading historical data...
Loading historical data...
Loading historical data...
Loading historical data...
Loading historical data...

Documentation

Showing up to 5 results
|